FW7345 Weather Reports


time (UTC)temp
F
wind
direction
speed
knots
gust
knots
rain 1hr
in
rain 24hr
in
rain mn
in
humidity
%
barometer
mb
20260506194603 85 186 1.7 7.8 0.00 0.00 0.00 84 1009.2
20260506193054 86 0 0.0 3.5 0.00 0.00 0.00 82 1009.3
20260506191555 86 186 0.9 4.3 0.00 0.00 0.00 82 1009.5
20260506190051 86 142 0.9 6.1 0.00 0.00 0.00 84 1009.6
20260506184556 85 133 1.7 6.1 0.00 0.00 0.00 85 1009.8
20260506183056 85 191 1.7 6.1 0.00 0.00 0.00 84 1009.9
20260506181552 85 169 0.9 6.1 0.00 0.00 0.00 84 1010.3
20260506180054 86 131 1.7 4.3 0.00 0.00 0.00 83 1010.5
20260506174553 84 124 0.0 2.6 0.00 0.00 0.00 86 1010.8
20260506173053 83 194 0.9 4.3 0.00 0.00 0.00 87 1011.0
20260506171556 82 171 0.0 3.5 0.00 0.00 0.00 91 1011.2
20260506170055 81 122 0.0 3.5 0.00 0.00 0.00 91 1011.3
20260506164550 80 0 0.0 3.5 0.00 0.00 0.00 93 1011.2
20260506163105 80 152 1.7 3.5 0.00 0.00 0.00 93 1011.2
20260506161604 79 205 0.9 5.2 0.00 0.00 0.00 94 1010.9
20260506160055 80 113 0.9 4.3 0.00 0.00 0.00 92 1010.8
20260506154608 79 103 0.9 5.2 0.00 0.00 0.00 93 1010.8
20260506153049 80 241 1.7 4.3 0.00 0.00 0.00 93 1010.9
20260506151548 79 180 0.9 3.5 0.00 0.00 0.00 93 1010.4
20260506150052 79 160 0.0 3.5 0.00 0.00 0.00 94 1010.2
20260506144601 78 149 0.9 2.6 0.00 0.00 0.00 95 1010.1
20260506143050 78 162 0.9 4.3 0.00 0.00 0.00 96 1009.7
20260506141559 77 146 1.7 5.2 0.00 0.00 0.00 98 1009.5
20260506140104 0 0.0 0.0 0.00 0.00 0.00 1009.7
20260506134552 0 0.0 0.0 0.00 0.00 0.00 1009.8
20260506133102 0 0.0 0.0 0.00 0.00 0.00 1009.9
20260506131551 0 0.0 0.0 0.00 0.00 0.00 1010.0
20260506130053 0 0.0 0.0 0.00 0.00 0.00 1010.0
20260506124557 0 0.0 0.0 0.00 0.00 0.00 1010.0
20260506123056 0 0.0 0.0 0.00 0.00 0.00 1009.8
20260506121553 0 0.0 0.0 0.00 0.00 0.00 1009.6
20260506120053 0 0.0 0.0 0.00 0.00 0.00 1009.5
20260506114601 0 0.0 0.0 0.00 0.00 0.00 1009.3
20260506113059 0 0.0 0.0 0.00 0.00 0.00 1009.2
20260506111600 75 0 0.0 3.5 0.00 0.00 0.00 100 1009.1
20260506110056 75 0 0.0 4.3 0.00 0.00 0.00 100 1008.8
20260506104557 75 144 0.0 3.5 0.00 0.00 0.00 99 1008.8
20260506103102 75 156 0.9 4.3 0.00 0.00 0.00 99 1008.8
20260506101558 74 184 0.9 3.5 0.00 0.00 0.00 99 1008.8
20260506100101 74 143 0.9 3.5 0.00 0.00 0.00 99 1008.6
20260506094555 75 0 0.0 2.6 0.00 0.00 0.00 99 1008.5
20260506093046 75 0 0.0 4.3 0.00 0.00 0.00 99 1008.4
20260506091554 75 108 0.0 5.2 0.00 0.00 0.00 99 1008.7
20260506090051 75 155 0.0 1.7 0.00 0.00 0.00 99 1008.8
20260506084554 75 0 0.0 0.9 0.00 0.00 0.00 99 1008.9
20260506083052 75 0 0.0 1.7 0.00 0.00 0.00 99 1008.7
20260506081557 75 131 0.0 2.6 0.00 0.00 0.00 99 1009.0
20260506073053 75 184 0.0 5.2 0.00 0.00 0.00 99 1009.3
20260506071555 75 187 0.0 4.3 0.00 0.00 0.00 99 1009.5
20260506061556 75 171 0.0 2.6 0.00 0.00 0.00 98 1009.9
20260506044638 76 150 0.0 1.7 0.00 0.00 0.00 96 1009.8
20260506043058 76 178 0.0 2.6 0.00 0.00 0.00 96 1009.7
20260506041553 76 0 0.9 3.5 0.00 0.00 0.00 95 1009.4
20260506040055 77 181 0.0 3.5 0.00 0.00 0.00 94 1009.6
20260506034551 77 198 0.9 6.1 0.00 0.00 0.00 94 1009.3
20260506033050 77 0 0.0 4.3 0.00 0.00 0.00 94 1009.1
20260506031548 77 0 0.9 3.5 0.00 0.00 0.00 94 1008.9
20260506030058 77 154 0.0 5.2 0.00 0.00 0.00 93 1008.9
20260506024558 77 194 0.9 3.5 0.00 0.00 0.00 93 1008.7
20260506023058 77 150 0.0 6.1 0.00 0.00 0.00 92 1008.7
20260506021605 78 0 0.9 3.5 0.00 0.00 0.00 92 1008.3
20260506020051 78 176 0.0 4.3 0.00 0.00 0.00 91 1008.1
20260506014552 78 197 0.0 3.5 0.00 0.00 0.00 91 1008.0
20260506013059 78 172 0.0 4.3 0.00 0.00 0.00 90 1007.6
20260506011552 78 200 0.9 5.2 0.00 0.00 0.00 89 1007.3
20260506010115 79 170 0.9 5.2 0.00 0.00 0.00 89 1007.3
20260506004553 79 195 0.9 5.2 0.00 0.00 0.00 88 1007.1
20260506003055 79 151 0.0 5.2 0.00 0.00 0.00 87 1006.9
20260506001558 80 164 0.9 5.2 0.00 0.00 0.00 86 1007.0
20260506000057 80 0 0.9 6.1 0.00 0.00 0.00 86 1007.0
20260505234608 80 238 1.7 9.6 0.00 0.00 0.00 85 1006.9
20260505233057 81 164 1.7 6.1 0.00 0.00 0.00 86 1006.8
20260505231553 81 150 2.6 7.0 0.00 0.00 0.00 85 1006.9
20260505230053 81 134 1.7 9.6 0.00 0.00 0.00 84 1006.9
20260505224551 82 124 2.6 8.7 0.00 0.00 0.00 84 1006.8
20260505223053 83 196 0.9 9.6 0.00 0.00 0.00 81 1007.0
20260505221550 83 246 1.7 8.7 0.00 0.00 0.00 81 1007.0
20260505220056 82 183 1.7 7.0 0.00 0.00 0.00 81 1007.2
20260505214604 83 140 1.7 7.0 0.00 0.00 0.00 81 1007.4
20260505213058 83 127 1.7 7.8 0.00 0.00 0.00 81 1007.4
20260505211550 83 143 0.0 8.7 0.00 0.00 0.00 82 1007.7
20260505210057 83 189 1.7 7.0 0.00 0.00 0.00 82 1008.0
20260505204557 83 259 0.9 7.8 0.00 0.00 0.00 81 1008.2
20260505203055 83 113 1.7 7.8 0.00 0.00 0.00 80 1008.3
20260505201553 83 224 0.9 6.1 0.00 0.00 0.00 81 1008.6